Starlink 32491

operational
NORAD ID: 62043 Int'l Des: 2024-216 Owner: SPXS Country: US Constellation: starlink
LEOCIRCULAR

Starlink 32491について

説明を読み込み中...

リアルタイム位置

3D地球を読み込み中...

次回通過

高度履歴

Altitude vs Time

uPlot chart will show altitude changes over time

軌道要素

1 62043U 24216M 25305.62709537 .00036048 00000-0 13111-2 0 9994
2 62043 43.0039 267.0380 0003121 277.1190 82.9306 15.27627430 54202
Epoch: Nov 1, 2025 • Age: 27 hours

現在のステータス

高度 485.0 km
速度 7.63 km/s
衛星直下点 29.22°N, 87.05°E
打ち上げ日 Nov 21, 2024
運用期間 0.9 years
タイプ internet

技術仕様

分類 Payload
質量 730.00 kg
乾燥質量 700.00 kg
総質量 730.00 kg
長さ 0.30 m
直径 4.10 m
スパン 29.00 m
形状 Box + pan
製造者 SPXS
バスタイプ Starlink V2M
フェーズステータス In Orbit
所有者/国 SPXS/US

大規模コンステレーション

Loading constellations...